Miscellaneous Local Product
Issued by NWS North Platte, NE

Home | Current Version | Previous Version | Graphics & Text | Print | Product List | Glossary On
Versions: 1 2 3 4 5 6 7 8 9 10 11 12 13 14 15 16 17 18 19 20 21 22 23 24 25 26 27 28 29 30 31 32 33 34 35 36 37 38 39 40 41 42 43 44 45 46 47 48 49 50
093
AXUS43 KLBF 101210
MISLBF


WESTERN AND NORTH CENTRAL NEBRASKA HOURLY WEATHER ROUNDUP
NATIONAL WEATHER SERVICE NORTH PLATTE NE
600 AM CST WED FEB 10 2016

NOTE: "FAIR" INDICATES FEW OR NO CLOUDS BELOW 12,000 FEET WITH NO
SIGNIFICANT WEATHER AND/OR OBSTRUCTIONS TO VISIBILITY.

NOTE: STATIONS NOT REPORTING VARIABLES SUCH AS SKY/WEATHER OR
PRESSURE ARE PROVIDED BY THE NEBRASKA DEPARTMENT OF
ROADS...RAWS...AND APRS NETWORKS...AND ARE NOT UNDER
NATIONAL WEATHER SERVICE QUALITY CONTROL.

...OBSERVATIONS IN AND NEAR THE EASTERN PANHANDLE OF NEBRASKA...

CITY           SKY/WX    TMP DP  RH WIND       PRES   REMARKS
PINE RIDGE     CLEAR     36  24  62 W15       29.96F WCI  27
CHADRON        CLOUDY    38  24  57 SW3       29.99F
ALLIANCE       CLOUDY    31  23  72 W9        30.00F WCI  23
SIDNEY         CLOUDY    32  22  66 W13       30.07S WCI  22
CRESCENT LAKE    N/A     39  25  58 NW13        N/A  WCI  31
BIG SPRINGS      N/A     32  26  79 W13         N/A  WCI  22
$$

...OBSERVATIONS IN NORTH CENTRAL NEBRASKA...

CITY           SKY/WX    TMP DP  RH WIND       PRES   REMARKS
VALENTINE      CLEAR     31  27  85 SW9       29.89F WCI  23
THEDFORD       CLEAR     36  29  78 W12       29.94F WCI  27
AINSWORTH      CLEAR     33  28  83 W7        29.89F WCI  27
O`NEILL        CLOUDY    26  23  89 S5        29.90F WCI  20
ORD            CLOUDY    20  17  88 SW3       29.91F
BROKEN BOW     CLEAR     32  26  78 W9        29.92F WCI  24
VALENTINE NWR    N/A     38  29  69 W13         N/A  WCI  30
BUTTE            N/A     26  21  82 S5          N/A  WCI  20
HALSEY           N/A     36  27  71 W7          N/A  WCI  30
CHAMBERS         N/A     25  20  81 S3          N/A
EWING            N/A     23  20  89 CALM        N/A
$$

...OBSERVATIONS IN SOUTHWEST NEBRASKA AND FAR NORTHEAST COLORADO...

CITY           SKY/WX    TMP DP  RH WIND       PRES   REMARKS
WRAY           FAIR      31  23  72 SW8       30.07F WCI  24
HOLYOKE        FAIR      36  27  69 W15       30.05F WCI  26
IMPERIAL       CLOUDY    36  23  59 W17       30.03F WCI  26
OGALLALA       CLOUDY    29  22  77 W13       30.03R WCI  18
NORTH PLATTE   CLEAR     25  21  85 W8        29.98F WCI  16
MCCOOK         CLOUDY    28  23  81 W12       30.03F WCI  18
LEXINGTON      CLOUDY    21  19  91 W8        29.98S WCI  12
PAXTON           N/A     28  24  86 CALM        N/A
STAPLETON        N/A     32  27  81 CALM        N/A
GOTHENBURG       N/A     29  24  80 NW3         N/A
CALLAWAY         N/A     35  27  74 NW10        N/A  WCI  27
$$

...OBSERVATIONS IN CENTRAL LINCOLN COUNTY AREA...

CITY           SKY/WX    TMP DP  RH WIND       PRES   REMARKS
N.P. AIRPORT   CLEAR     25  21  85 W8        29.98F WCI  16
N.P. SOUTHEAST   N/A     34  27  75 W3          N/A
N.P. HILLCREST   N/A     31  27  83 W8          N/A  WCI  24
$$

...SOME OBSERVATIONS FROM AROUND THE REGION...

CITY           SKY/WX    TMP DP  RH WIND       PRES   REMARKS
DENVER         CLOUDY    38  14  37 SW12      30.17R WCI  30
LARAMIE        CLOUDY    35  13  40 W9        30.25S WCI  28
CHEYENNE       CLOUDY    41  16  36 W20G30    30.14F
SCOTTSBLUFF    CLOUDY    31  25  78 NW9       30.04F WCI  23
RAPID CITY     CLOUDY    36  25  64 NW9       29.88S WCI  29
BISMARCK       CLOUDY    24  18  77 SE8       29.88R WCI  15
PIERRE         CLOUDY    23  21  92 E3        29.87F
WINNER         FAIR      30  25  81 SW5       29.86F WCI  25
SIOUX FALLS    LGT SNOW  19  15  84 E12       30.00F FOG     WCI   7
OMAHA          FLURRIES  24  18  77 SE10      30.07F WCI  14
GRAND ISLAND   CLEAR     22  19  89 S9        29.96F WCI  12
KANSAS CITY    CLOUDY    23  15  71 SW6       30.15S WCI  16
WICHITA        PTCLDY    26  15  63 S12       30.16F WCI  16
OKLAHOMA CITY  CLEAR     23  20  88 S7        30.25F WCI  15
LIBERAL        CLEAR     36  21  55 W12       30.15F WCI  27
HAYS           CLEAR     30  18  59 W8        30.06S WCI  23
GOODLAND       CLOUDY    35  21  56 W15       30.09F WCI  25
$$




USA.gov is the U.S. government's official web portal to all federal, state and local government web resources and services.